Location: Montreal
(45.5087°N, 73.5540°W)
Time: 00:38:10
(UTC-04:00)

Altair - All Passes

Search period start: 08 June 2026 00:00
Search period end: 18 June 2026 00:00
Orbit: 1501 x 1682 km, 47.2° (Epoch: 6 June)

Date Brightness Start Highest point End Pass type
(mag) Time Alt. Az. Time Alt. Az. Time Alt. Az.
8 Jun - 00:53:31 10° WSW 01:03:01 90° SSE 01:12:56 10° ENE visible
8 Jun - 02:58:29 10° W 03:08:11 83° N 03:18:17 10° E visible
8 Jun - 05:03:20 10° WNW 05:12:58 63° SSW 05:22:52 10° SE daylight
8 Jun - 07:09:08 10° W 07:16:26 24° SW 07:23:50 10° S daylight
8 Jun - 20:28:14 10° SE 20:30:58 12° ESE 20:33:43 10° ESE daylight
8 Jun - 22:25:00 10° SSW 22:33:36 44° SE 22:42:30 10° ENE visible
9 Jun - 00:28:18 10° WSW 00:37:45 87° SSE 00:47:38 10° ENE visible
9 Jun - 02:33:14 10° W 02:42:54 82° N 02:52:57 10° E visible
9 Jun - 04:38:05 10° WNW 04:47:44 66° SSW 04:57:41 10° SE daylight
9 Jun - 06:43:41 10° W 06:51:19 26° SW 06:59:04 10° S daylight
9 Jun - 22:00:01 10° SSW 22:08:28 41° SE 22:17:10 10° ENE visible
10 Jun - 00:03:05 10° WSW 00:12:30 85° SSE 00:22:19 10° ENE visible
10 Jun - 02:07:59 10° W 02:17:36 82° N 02:27:37 10° E visible
10 Jun - 04:12:50 10° WNW 04:22:30 69° SSW 04:32:28 10° SE visible
10 Jun - 06:18:16 10° WNW 06:26:10 28° SW 06:34:14 10° S daylight
10 Jun - 21:35:04 10° SSW 21:43:20 38° SE 21:51:50 10° ENE visible
10 Jun - 23:37:53 10° WSW 23:47:15 82° SSE 23:57:01 10° ENE visible
11 Jun - 01:42:43 10° W 01:52:18 81° N 02:02:17 10° E visible
11 Jun - 03:47:36 10° WNW 03:57:15 73° SSW 04:07:14 10° SE visible
11 Jun - 05:52:52 10° WNW 06:01:01 31° SW 06:09:22 10° S daylight
11 Jun - 21:10:08 10° SSW 21:18:12 35° SE 21:26:29 10° ENE visible
11 Jun - 23:12:42 10° WSW 23:22:01 79° SSE 23:31:43 10° ENE visible
12 Jun - 01:17:28 10° W 01:27:01 81° N 01:36:57 10° E visible
12 Jun - 03:22:21 10° WNW 03:32:00 76° SSW 03:42:00 10° ESE visible
12 Jun - 05:27:30 10° WNW 05:35:52 33° SW 05:44:27 10° SSE daylight
12 Jun - 20:45:15 10° SSW 20:53:05 32° SE 21:01:07 10° ENE daylight
12 Jun - 22:47:31 10° WSW 22:56:47 76° SSE 23:06:26 10° ENE visible
13 Jun - 00:52:13 10° W 01:01:43 81° N 01:11:38 10° E visible
13 Jun - 02:57:07 10° WNW 03:06:45 79° SSW 03:16:45 10° ESE visible
13 Jun - 05:02:10 10° WNW 05:10:43 36° SW 05:19:30 10° SSE daylight
13 Jun - 20:20:25 10° S 20:27:59 30° SE 20:35:43 10° ENE daylight
13 Jun - 22:22:21 10° SW 22:31:34 73° SSE 22:41:09 10° ENE visible
14 Jun - 00:26:58 10° W 00:36:26 81° N 00:46:18 10° E visible
14 Jun - 02:31:53 10° WNW 02:41:30 81° SSW 02:51:29 10° ESE visible
14 Jun - 04:36:51 10° WNW 04:45:33 38° SW 04:54:31 10° SSE daylight
14 Jun - 19:55:36 10° S 20:02:53 27° SE 20:10:18 10° ENE daylight
14 Jun - 21:57:12 10° SW 22:06:21 70° SSE 22:15:52 10° ENE visible
15 Jun - 00:01:43 10° W 00:11:09 81° N 00:20:59 10° E visible
15 Jun - 02:06:39 10° WNW 02:16:14 84° SSW 02:26:12 10° ESE visible
15 Jun - 04:11:33 10° WNW 04:20:23 41° SW 04:29:29 10° SSE visible
15 Jun - 06:21:32 10° WSW 06:23:08 10° WSW 06:24:45 10° SW daylight
15 Jun - 19:30:50 10° S 19:37:48 25° SE 19:44:52 10° E daylight
15 Jun - 21:32:03 10° SW 21:41:10 67° SSE 21:50:34 10° ENE visible
15 Jun - 23:36:28 10° W 23:45:52 82° N 23:55:40 10° E visible
16 Jun - 01:41:24 10° WNW 01:50:59 86° SSW 02:00:55 10° ESE visible
16 Jun - 03:46:16 10° WNW 03:55:13 44° SW 04:04:27 10° SSE visible
16 Jun - 05:54:42 10° WSW 05:58:04 12° WSW 06:01:28 10° SW daylight
16 Jun - 19:06:07 10° S 19:12:43 23° SE 19:19:24 10° E daylight
16 Jun - 21:06:56 10° SW 21:15:58 63° SSE 21:25:17 10° ENE visible
16 Jun - 23:11:13 10° W 23:20:36 83° N 23:30:21 10° E visible
17 Jun - 01:16:10 10° WNW 01:25:43 89° SSW 01:35:38 10° ESE visible
17 Jun - 03:21:00 10° WNW 03:30:02 47° SW 03:39:22 10° SSE visible
17 Jun - 05:28:36 10° W 05:33:00 14° WSW 05:37:27 10° SSW daylight
17 Jun - 18:41:28 10° S 18:47:39 20° SE 18:53:52 10° E daylight
17 Jun - 20:41:50 10° SW 20:50:47 60° SSE 21:00:01 10° ENE daylight
17 Jun - 22:45:59 10° W 22:55:19 84° N 23:05:03 10° E visible
